Weather History for Ithaca, NY

Change the Weather History Date:

Thursday, November 21, 2013

  Actual Average Record
Temperature  
Mean Temperature 36 °F -  
Max Temperature 45 °F 44 °F 72 °F (1991)
Min Temperature 28 °F 29 °F 7 °F (1951)
Degree Days  
Heating Degree Days 28    
Moisture  
Dew Point 22 °F    
Average Humidity 59    
Maximum Humidity 93    
Minimum Humidity 38    
Precipitation  
Precipitation 0.00 in - - ()
Sea Level Pressure  
Sea Level Pressure 30.47 in    
Wind  
Wind Speed 10 mph (South)    
Max Wind Speed 15 mph    
Max Gust Speed 22 mph    
Visibility 10 miles    
Events Rain    
Averages and records for this station are not official NWS values.
T = Trace of Precipitation, MM = Missing Value Source: NWS Daily Summary

Daily Weather History Graph

Daily Weather History Graph

Search for Another Location

Airport:

Trip Planner

Search our weather history database for the weather conditions in past years. The results will help you decide how hot, cold, wet, or windy it might be!

Date:

Astronomy

Nov. 21, 2013 Rise Set
Actual Time 7:04 AM EST 4:38 PM EST
Civil Twilight 6:33 AM EST 5:09 PM EST
Nautical Twilight 5:59 AM EST 5:43 PM EST
Astronomical Twilight 5:25 AM EST 6:17 PM EST
Moon 8:14 PM EST (11/21) 10:09 AM EST (11/21)
Length of Visible Light 10h 35m
Length of Day
9h 34m
Waning Gibbous, 85% of the Moon is Illuminated
Nov 21
Waning Gibbous
Nov 25
Last Quarter
Dec 2
New
Dec 9
First Quarter
Dec 17
Full

Hourly Weather History & Observations

Time (EST) Temp. Windchill Dew Point Humidity Pressure Visibility Wind Dir Wind Speed Gust Speed Precip Events Conditions
12:56 AM 31.1 °F 23.1 °F 8.1 °F 38% 30.55 in 10.0 mi SE 9.2 mph - N/A   Clear
1:56 AM 30.0 °F 21.7 °F 9.1 °F 42% 30.55 in 10.0 mi SSE 9.2 mph - N/A   Clear
2:56 AM 29.1 °F 20.0 °F 9.1 °F 43% 30.55 in 10.0 mi SE 10.4 mph - N/A   Clear
3:56 AM 28.0 °F 18.6 °F 9.1 °F 45% 30.54 in 10.0 mi SSE 10.4 mph - N/A   Clear
4:56 AM 29.1 °F 19.4 °F 10.0 °F 45% 30.55 in 10.0 mi SSE 11.5 mph - N/A   Clear
5:56 AM 29.1 °F 20.6 °F 11.1 °F 47% 30.55 in 10.0 mi SSE 9.2 mph - N/A   Clear
6:10 AM 28.4 °F 19.7 °F 10.4 °F 47% 30.49 in 10.0 mi SSE 9.2 mph - N/A   Clear
6:56 AM 29.1 °F 20.0 °F 13.1 °F 51% 30.54 in 10.0 mi SSE 10.4 mph - N/A   Clear
7:56 AM 32.0 °F 23.0 °F 16.2 °F 52% 30.54 in 10.0 mi SSE 11.5 mph - N/A   Clear
8:56 AM 32.9 °F 23.7 °F 18.1 °F 55% 30.56 in 10.0 mi South 12.7 mph - N/A   Clear
9:56 AM 34.9 °F 25.7 °F 21.0 °F 57% 30.53 in 10.0 mi South 13.8 mph 21.9 mph N/A   Scattered Clouds
10:56 AM 38.8 °F 30.4 °F 24.1 °F 55% 30.50 in 10.0 mi SSW 15.0 mph 20.7 mph N/A   Partly Cloudy
11:56 AM 39.9 °F 33.4 °F 26.1 °F 58% 30.48 in 10.0 mi SSW 10.4 mph - N/A   Scattered Clouds
12:56 PM 43.0 °F 37.2 °F 27.1 °F 54% 30.45 in 10.0 mi South 10.4 mph - N/A   Partly Cloudy
1:56 PM 45.0 °F 38.9 °F 29.1 °F 54% 30.44 in 10.0 mi South 12.7 mph - N/A   Mostly Cloudy
2:56 PM 43.0 °F 36.8 °F 28.0 °F 56% 30.44 in 10.0 mi SSW 11.5 mph - N/A   Overcast
3:56 PM 41.9 °F 36.3 °F 29.1 °F 61% 30.44 in 10.0 mi South 9.2 mph - N/A   Overcast
4:56 PM 41.0 °F 36.4 °F 29.1 °F 63% 30.44 in 10.0 mi South 6.9 mph - N/A   Overcast
5:56 PM 39.9 °F 35.1 °F 30.0 °F 68% 30.43 in 10.0 mi South 6.9 mph - N/A   Overcast
6:56 PM 39.9 °F 34.5 °F 31.1 °F 71% 30.42 in 10.0 mi South 8.1 mph - N/A   Overcast
7:56 PM 39.9 °F 33.4 °F 32.0 °F 73% 30.41 in 10.0 mi South 10.4 mph - 0.00 in   Overcast
8:56 PM 39.9 °F 35.1 °F 32.9 °F 76% 30.40 in 10.0 mi South 6.9 mph - 0.00 in Rain Light Rain
9:56 PM 39.9 °F 34.5 °F 32.9 °F 76% 30.37 in 10.0 mi South 8.1 mph - 0.00 in Rain Light Rain
10:56 PM 38.8 °F 34.6 °F 34.9 °F 86% 30.35 in 10.0 mi South 5.8 mph - 0.00 in Rain Light Rain
11:56 PM 37.9 °F 32.1 °F 36.0 °F 93% 30.34 in 9.0 mi South 8.1 mph - 0.00 in Rain Light Rain